sat.trackr.live / text

‹ back to catalog

QIANFAN-121

NORAD 68648 · 2026-075N

PAYLOAD ACTIVE UNKNOWN

§ Identity

Operator
Country
PRC
Launch date
2026-04-07
Launch site
WSC
Launch vehicle
Mass (kg)
RCS (m²)

External: N2YO · Heavens-Above · Gunter

§ Orbital elements

Epoch: 2026-05-24T15:37:30.065088Z

Period
105.57 min
Inclination
88.9883°
Eccentricity
0.0010420
Mean motion
13.63974137 rev/d
Perigee alt
1,013.6 km
Apogee alt
1,029.0 km
Semi-major
7,399.4 km
B*
3.8123e-5
RAAN
323.4177°
Arg perigee
70.9815°
Mean anomaly
289.2472°
Rev number
662

§ Raw data

QIANFAN-1211 68648U 26075N   26144.65104242  .00000043  00000+0  38123-4 0  99902 68648  88.9883 323.4177 0010420  70.9815 289.2472 13.63974137  6624

JSON: /api/v1/satellites/68648 · /tle

For live sub-satellite position, see the globe view (requires WebGL).

§ Visibility from observer

Set your observer location to see the next 7 days of passes ≥ 10°. The values pass through the URL so the page stays shareable.

No JS? Fill the form by hand. The geolocation button needs JavaScript.